Torna al catalogo

STARLINK-34343 DEB

AttivoPO
NORAD 69730·DEBRIS·🇺🇸 United States

Lanciato May 27, 2025 da Vandenberg Space Force Base

Loading…

Prossimi Passaggi (prossime 24 ore)

TLE

In scadenzaSource: Space-Track

Epoca: Sep 5, 2026, 21:20 UTC

1 69730U 25112AB  26248.88919455  .03401036  11390-1  13804-1 0  9996
2 69730  97.5992 303.0667 0017648 266.9564  92.9688 15.88832013 23047

Traccia STARLINK-34343 DEB in tempo reale con AllMySat

Download on the App Store